College Station, AR

8:05 PM CDT on September 26, 2016 (GMT -0500)
Adams

Weather History for KLIT - April, 2013

Change the Weather History Date:

Saturday, April 20, 2013

  Actual Average Record
Temperature  
Mean Temperature 57 °F 63 °F  
Max Temperature 69 °F 74 °F 95 °F (1987)
Min Temperature 44 °F 52 °F 34 °F (1983)
Degree Days  
Heating Degree Days 8 4  
Month to date heating degree days 143 118  
Since 1 July heating degree days 2925 3006  
Cooling Degree Days 0 2  
Month to date cooling degree days 46 30  
Year to date cooling degree days 51 46  
Growing Degree Days 4 (Base 50)    
Moisture  
Dew Point 39 °F    
Average Humidity 58    
Maximum Humidity 89    
Minimum Humidity 28    
Precipitation  
Precipitation 0.00 in 0.18 in 8.08 in (1927)
Month to date precipitation 3.46 3.34  
Year to date precipitation 17.97 15.23  
Snow  
Snow 0.00 in 0.00 in - ()
Month to date snowfall 0.0 0.0  
Since 1 July snowfall 10.9 3.5  
Snow Depth 0.00 in    
Sea Level Pressure  
Sea Level Pressure 30.21 in    
Wind  
Wind Speed 4 mph (South)    
Max Wind Speed 14 mph    
Max Gust Speed 18 mph    
Visibility 10 miles    
Events      
T = Trace of Precipitation, MM = Missing Value Source: NWS Daily Summary

Daily Weather History Graph

Daily Weather History Graph

Search for Another Location

Airport or City:

Trip Planner

Search our weather history database for the weather conditions in past years. The results will help you decide how hot, cold, wet, or windy it might be!

Date:

Astronomy

Apr. 20, 2013 Rise Set
Actual Time 6:30 AM CDT 7:45 PM CDT
Civil Twilight 6:04 AM CDT 8:11 PM CDT
Nautical Twilight 5:33 AM CDT 8:43 PM CDT
Astronomical Twilight 5:00 AM CDT 9:15 PM CDT
Moon 2:41 PM CDT (4/20) 3:07 AM CDT (4/20)
Length of Visible Light 14h 07m
Length of Day
13h 14m
Waxing Gibbous, 71% of the Moon is Illuminated
Apr 20
Waxing Gibbous
Apr 25
Full
May 2
Last Quarter
May 9
New
May 17
First Quarter

Hourly Weather History & Observations

Time (CDT) Temp. Windchill Dew Point Humidity Pressure Visibility Wind Dir Wind Speed Gust Speed Precip Events Conditions
12:53 AM 43.0 °F 41.3 °F 37.0 °F 80% 30.18 in 10.0 mi WSW 3.5 mph - N/A   Clear
1:53 AM 42.1 °F 40.2 °F 37.9 °F 85% 30.18 in 10.0 mi WSW 3.5 mph - N/A   Clear
2:53 AM 41.0 °F 39.0 °F 37.0 °F 86% 30.18 in 10.0 mi SW 3.5 mph - N/A   Clear
3:53 AM 41.0 °F 38.0 °F 37.9 °F 89% 30.19 in 10.0 mi WSW 4.6 mph - N/A   Clear
4:53 AM 39.9 °F - 37.0 °F 89% 30.19 in 10.0 mi Calm Calm - N/A   Clear
5:53 AM 39.0 °F - 36.0 °F 89% 30.21 in 10.0 mi Calm Calm - N/A   Clear
6:53 AM 39.0 °F - 36.0 °F 89% 30.22 in 10.0 mi Calm Calm - N/A   Partly Cloudy
7:53 AM 44.1 °F - 39.0 °F 82% 30.24 in 10.0 mi Calm Calm - N/A   Partly Cloudy
8:53 AM 51.1 °F - 39.0 °F 63% 30.25 in 10.0 mi West 4.6 mph - N/A   Partly Cloudy
9:53 AM 59.0 °F - 37.0 °F 44% 30.26 in 10.0 mi WSW 6.9 mph - N/A   Mostly Cloudy
10:53 AM 63.0 °F - 34.0 °F 34% 30.27 in 10.0 mi SW 13.8 mph 18.4 mph N/A   Overcast
11:53 AM 64.9 °F - 34.0 °F 32% 30.27 in 10.0 mi SW 10.4 mph - N/A   Overcast
12:53 PM 66.9 °F - 33.1 °F 28% 30.24 in 10.0 mi West 3.5 mph - N/A   Mostly Cloudy
1:53 PM 68.0 °F - 34.0 °F 28% 30.22 in 10.0 mi Variable 5.8 mph - N/A   Mostly Cloudy
2:53 PM 69.1 °F - 37.0 °F 31% 30.20 in 10.0 mi SSE 5.8 mph - N/A   Mostly Cloudy
3:53 PM 69.1 °F - 37.0 °F 31% 30.18 in 10.0 mi ESE 6.9 mph - N/A   Mostly Cloudy
4:53 PM 69.1 °F - 37.9 °F 32% 30.17 in 10.0 mi ESE 8.1 mph - N/A   Mostly Cloudy
5:53 PM 68.0 °F - 39.9 °F 36% 30.17 in 10.0 mi ESE 12.7 mph - N/A   Mostly Cloudy
6:53 PM 64.9 °F - 42.1 °F 43% 30.17 in 10.0 mi SE 10.4 mph - N/A   Mostly Cloudy
7:53 PM 61.0 °F - 42.1 °F 50% 30.18 in 10.0 mi SE 6.9 mph - N/A   Mostly Cloudy
8:53 PM 59.0 °F - 44.1 °F 58% 30.20 in 10.0 mi SE 5.8 mph - N/A   Mostly Cloudy
9:53 PM 57.0 °F - 44.1 °F 62% 30.22 in 10.0 mi Calm Calm - N/A   Mostly Cloudy
10:53 PM 55.0 °F - 46.0 °F 72% 30.24 in 10.0 mi SE 3.5 mph - N/A   Mostly Cloudy
11:53 PM 55.0 °F - 45.0 °F 69% 30.24 in 10.0 mi SSE 4.6 mph - N/A   Mostly Cloudy